OVO655F RJTT-KDEN

Flight info

Callsign OVO655F
Flight time N/A
Altitude 35000
Route AKAGI Y88 DAIGO Y886 ADNAP R591 ADGOR 44N160E 47N170E 49N180W/N0472F370 50N170W 50N160W 50N150W 49N140W/N0467F390 46N130W DCT SEDAR DCT TIMEE J15 BOI J54 PIH DCT TOFUU FLATI5
Aircraft A333/H-SDE3GHIJ2J3J5M1RVWXY/LB2D1

Departure

Time N/A
Airport Tokyo Haneda International Airport (RJTT)

Arrival

Time 2026-05-04 01:48
Airport Denver International Airport (KDEN)
Time Latitude Longitude Altitude Speed Heading
2026-05-04 00:29 43.18672 -114.21354 38856 ft 471 kts 105°
2026-05-04 00:30 43.16978 -114.12675 38834 ft 471 kts 105°
2026-05-04 00:30 43.15276 -114.03999 38818 ft 472 kts 105°
2026-05-04 00:31 43.13567 -113.95320 38816 ft 472 kts 105°
2026-05-04 00:31 43.11861 -113.86693 38810 ft 474 kts 105°
2026-05-04 00:32 43.10131 -113.77986 38806 ft 474 kts 105°
2026-05-04 00:32 43.08395 -113.69285 38807 ft 474 kts 105°
2026-05-04 00:33 43.05778 -113.56245 38812 ft 474 kts 105°
2026-05-04 00:34 43.04025 -113.47555 38826 ft 474 kts 106°
2026-05-04 00:34 43.02263 -113.38861 38819 ft 476 kts 106°
2026-05-04 00:35 43.00490 -113.30147 38818 ft 476 kts 106°
2026-05-04 00:35 42.98711 -113.21442 38821 ft 476 kts 106°
2026-05-04 00:36 42.96925 -113.12739 38827 ft 476 kts 106°
2026-05-04 00:36 42.95130 -113.04030 38838 ft 477 kts 106°
2026-05-04 00:37 42.93314 -112.95256 38868 ft 483 kts 106°
2026-05-04 00:37 42.91479 -112.86431 38891 ft 484 kts 106°
2026-05-04 00:38 42.89636 -112.77603 38910 ft 484 kts 106°
2026-05-04 00:38 42.87787 -112.68782 38854 ft 484 kts 107°
2026-05-04 00:39 42.86032 -112.59926 38860 ft 485 kts 105°
2026-05-04 00:39 42.84367 -112.51022 38874 ft 485 kts 105°
2026-05-04 00:40 42.82688 -112.42097 38872 ft 487 kts 105°
2026-05-04 00:40 42.80998 -112.33173 38891 ft 487 kts 105°
2026-05-04 00:41 42.79299 -112.24250 38889 ft 487 kts 105°
2026-05-04 00:41 42.77594 -112.15336 38898 ft 487 kts 105°
2026-05-04 00:42 42.75880 -112.06411 38910 ft 488 kts 105°
2026-05-04 00:42 42.74153 -111.97471 38909 ft 489 kts 105°
2026-05-04 00:43 42.72420 -111.88535 38907 ft 488 kts 105°
2026-05-04 00:43 42.70681 -111.79609 38915 ft 488 kts 105°
2026-05-04 00:44 42.68933 -111.70681 38907 ft 489 kts 105°
2026-05-04 00:44 42.67177 -111.61748 38905 ft 489 kts 105°
2026-05-04 00:45 42.65425 -111.52880 38911 ft 489 kts 105°
2026-05-04 00:45 42.63654 -111.43953 38911 ft 490 kts 106°
2026-05-04 00:46 42.61876 -111.35030 38940 ft 489 kts 106°
2026-05-04 00:46 42.60090 -111.26108 38959 ft 490 kts 106°
2026-05-04 00:47 42.58298 -111.17191 38970 ft 490 kts 106°
2026-05-04 00:47 42.56494 -111.08262 38982 ft 491 kts 106°
2026-05-04 00:48 42.54681 -110.99323 38992 ft 492 kts 106°
2026-05-04 00:48 42.52861 -110.90390 38983 ft 492 kts 106°
2026-05-04 00:49 42.51033 -110.81456 38972 ft 492 kts 106°
2026-05-04 00:49 42.49195 -110.72519 38961 ft 494 kts 106°
2026-05-04 00:50 42.47344 -110.63550 38950 ft 494 kts 107°
2026-05-04 00:50 42.45484 -110.54585 38942 ft 494 kts 107°
2026-05-04 00:51 42.43620 -110.45635 38955 ft 494 kts 107°
2026-05-04 00:51 42.41743 -110.36661 38969 ft 496 kts 107°
2026-05-04 00:52 42.39869 -110.27736 38975 ft 497 kts 107°
2026-05-04 00:52 42.37973 -110.18749 38972 ft 497 kts 107°
2026-05-04 00:53 42.36070 -110.09772 38969 ft 497 kts 107°
2026-05-04 00:53 42.34159 -110.00788 38943 ft 498 kts 107°
2026-05-04 00:54 42.32238 -109.91802 38916 ft 498 kts 107°
2026-05-04 00:54 42.30311 -109.82822 38886 ft 498 kts 107°
2026-05-04 00:55 42.28376 -109.73846 38867 ft 499 kts 107°
2026-05-04 00:55 42.26427 -109.64841 38863 ft 500 kts 107°
2026-05-04 00:56 42.24470 -109.55834 38861 ft 500 kts 107°
2026-05-04 00:56 42.22504 -109.46829 38856 ft 500 kts 107°
2026-05-04 00:57 42.20531 -109.37824 38853 ft 501 kts 107°
2026-05-04 00:57 42.18545 -109.28800 38853 ft 502 kts 107°
2026-05-04 00:58 42.16552 -109.19782 38839 ft 502 kts 107°
2026-05-04 00:58 42.14551 -109.10768 38842 ft 502 kts 107°
2026-05-04 00:59 42.12542 -109.01751 38837 ft 503 kts 108°
2026-05-04 00:59 42.10523 -108.92728 38829 ft 503 kts 108°
2026-05-04 01:00 42.08499 -108.83718 38829 ft 503 kts 108°
2026-05-04 01:00 42.06466 -108.74705 38822 ft 503 kts 108°
2026-05-04 01:01 42.04425 -108.65698 38831 ft 504 kts 108°
2026-05-04 01:01 42.02377 -108.56690 38824 ft 503 kts 108°
2026-05-04 01:02 42.00337 -108.47758 38822 ft 503 kts 108°
2026-05-04 01:02 41.98275 -108.38766 38819 ft 504 kts 108°
2026-05-04 01:03 41.96203 -108.29768 38818 ft 504 kts 108°
2026-05-04 01:03 41.94124 -108.20775 38822 ft 504 kts 108°
2026-05-04 01:04 41.92038 -108.11785 38821 ft 504 kts 108°
2026-05-04 01:04 41.89945 -108.02803 38826 ft 504 kts 108°
2026-05-04 01:05 41.87844 -107.93825 38823 ft 504 kts 108°
2026-05-04 01:05 41.85737 -107.84853 38829 ft 504 kts 108°
2026-05-04 01:06 41.83622 -107.75888 38825 ft 504 kts 109°
2026-05-04 01:06 41.81050 -107.67170 38834 ft 502 kts 123°
2026-05-04 01:07 41.76788 -107.59852 38875 ft 498 kts 135°
2026-05-04 01:07 41.72140 -107.52974 38905 ft 499 kts 135°
2026-05-04 01:08 41.67488 -107.46089 38919 ft 499 kts 135°
2026-05-04 01:08 41.62840 -107.39203 38936 ft 499 kts 135°
2026-05-04 01:09 41.58176 -107.32303 38922 ft 501 kts 135°
2026-05-04 01:09 41.53498 -107.25395 38907 ft 501 kts 135°
2026-05-04 01:10 41.48817 -107.18498 38876 ft 501 kts 135°
2026-05-04 01:10 41.44130 -107.11608 38863 ft 501 kts 135°
2026-05-04 01:11 41.39445 -107.04728 38882 ft 501 kts 135°
2026-05-04 01:11 41.34780 -106.97892 38867 ft 503 kts 135°
2026-05-04 01:12 41.30068 -106.91002 38877 ft 504 kts 135°
2026-05-04 01:12 41.25347 -106.84115 38980 ft 504 kts 135°
2026-05-04 01:13 41.20622 -106.77237 38959 ft 504 kts 135°
2026-05-04 01:13 41.18261 -106.73806 38744 ft 503 kts 135°
2026-05-04 01:13 41.15903 -106.70384 38464 ft 501 kts 136°
2026-05-04 01:13 41.13550 -106.66973 38182 ft 501 kts 136°
2026-05-04 01:14 41.11991 -106.64716 37994 ft 502 kts 136°
2026-05-04 01:14 41.09628 -106.61302 37709 ft 502 kts 136°
2026-05-04 01:14 41.07269 -106.57893 37438 ft 502 kts 136°
2026-05-04 01:14 41.04907 -106.54482 37167 ft 502 kts 136°
2026-05-04 01:15 41.02551 -106.51085 36796 ft 501 kts 135°
2026-05-04 01:15 41.00192 -106.47686 36093 ft 502 kts 136°
2026-05-04 01:15 40.97822 -106.44276 35306 ft 505 kts 135°
2026-05-04 01:15 40.95432 -106.40842 34469 ft 509 kts 135°
2026-05-04 01:16 40.93020 -106.37380 33556 ft 514 kts 135°
2026-05-04 01:16 40.90590 -106.33896 32717 ft 516 kts 135°
2026-05-04 01:16 40.88182 -106.30445 32460 ft 505 kts 135°
2026-05-04 01:16 40.85843 -106.27013 31958 ft 501 kts 131°
2026-05-04 01:17 40.83886 -106.23220 31419 ft 501 kts 120°
2026-05-04 01:17 40.82325 -106.19117 30819 ft 499 kts 116°
2026-05-04 01:17 40.80864 -106.14977 30272 ft 496 kts 116°
2026-05-04 01:17 40.79419 -106.10853 29706 ft 493 kts 116°
2026-05-04 01:18 40.77989 -106.06792 29411 ft 483 kts 116°
2026-05-04 01:18 40.76582 -106.02816 29191 ft 473 kts 116°
2026-05-04 01:18 40.75199 -105.98922 28760 ft 467 kts 116°
2026-05-04 01:18 40.73818 -105.95044 28161 ft 466 kts 116°
2026-05-04 01:19 40.72443 -105.91193 27692 ft 462 kts 116°
2026-05-04 01:19 40.71075 -105.87375 27199 ft 459 kts 116°
2026-05-04 01:19 40.69719 -105.83595 26756 ft 455 kts 116°
2026-05-04 01:19 40.68367 -105.79832 26226 ft 453 kts 116°
2026-05-04 01:20 40.67028 -105.76111 25899 ft 446 kts 116°
2026-05-04 01:20 40.65699 -105.72422 25360 ft 446 kts 116°
2026-05-04 01:20 40.64370 -105.68738 24863 ft 444 kts 116°
2026-05-04 01:20 40.63048 -105.65078 24439 ft 440 kts 116°
2026-05-04 01:21 40.61738 -105.61455 24011 ft 437 kts 116°
2026-05-04 01:21 40.60433 -105.57852 23542 ft 435 kts 117°
2026-05-04 01:21 40.59139 -105.54281 23055 ft 431 kts 117°
2026-05-04 01:21 40.57849 -105.50727 22589 ft 428 kts 116°
2026-05-04 01:22 40.56572 -105.47213 22057 ft 424 kts 117°
2026-05-04 01:22 40.55311 -105.43746 21748 ft 417 kts 116°
2026-05-04 01:22 40.54071 -105.40341 21429 ft 409 kts 117°
2026-05-04 01:22 40.52850 -105.36996 21092 ft 403 kts 117°
2026-05-04 01:23 40.51644 -105.33697 20626 ft 400 kts 116°
2026-05-04 01:23 40.50446 -105.30421 20220 ft 396 kts 116°
2026-05-04 01:23 40.49261 -105.27184 19919 ft 390 kts 116°
2026-05-04 01:23 40.48093 -105.23997 19581 ft 385 kts 116°
2026-05-04 01:24 40.46936 -105.20847 19232 ft 380 kts 117°
2026-05-04 01:24 40.45519 -105.17970 18961 ft 372 kts 135°
2026-05-04 01:24 40.43590 -105.15802 18800 ft 360 kts 146°
2026-05-04 01:24 40.41576 -105.13904 18538 ft 354 kts 147°
2026-05-04 01:25 40.39575 -105.12069 18350 ft 349 kts 147°
2026-05-04 01:25 40.37583 -105.10243 18172 ft 349 kts 147°
2026-05-04 01:25 40.35598 -105.08417 18006 ft 349 kts 147°
2026-05-04 01:25 40.33614 -105.06587 17833 ft 349 kts 146°
2026-05-04 01:26 40.31632 -105.04754 17717 ft 349 kts 146°
2026-05-04 01:26 40.29650 -105.02919 17526 ft 349 kts 145°
2026-05-04 01:26 40.27696 -105.01111 17368 ft 348 kts 145°
2026-05-04 01:26 40.25698 -104.99262 17127 ft 347 kts 145°
2026-05-04 01:27 40.23755 -104.97467 16959 ft 346 kts 145°
2026-05-04 01:27 40.21789 -104.95650 16801 ft 346 kts 145°
2026-05-04 01:27 40.19828 -104.93838 16539 ft 345 kts 145°
2026-05-04 01:27 40.17901 -104.91982 16300 ft 343 kts 143°
2026-05-04 01:28 40.16039 -104.90036 16035 ft 342 kts 142°
2026-05-04 01:28 40.14205 -104.88086 15793 ft 338 kts 142°
2026-05-04 01:28 40.12387 -104.86153 15550 ft 336 kts 142°
2026-05-04 01:28 40.10574 -104.84229 15307 ft 335 kts 142°
2026-05-04 01:29 40.08772 -104.82319 15078 ft 333 kts 142°
2026-05-04 01:29 40.07001 -104.80367 14899 ft 332 kts 136°
2026-05-04 01:29 40.05508 -104.78069 14667 ft 332 kts 127°
2026-05-04 01:29 40.04154 -104.75636 14456 ft 331 kts 126°
2026-05-04 01:30 40.02824 -104.73189 14233 ft 330 kts 126°
2026-05-04 01:30 40.01498 -104.70754 14006 ft 329 kts 126°
2026-05-04 01:30 40.00175 -104.68331 13782 ft 327 kts 126°
2026-05-04 01:30 39.98853 -104.65920 13536 ft 326 kts 126°
2026-05-04 01:31 39.97536 -104.63524 13307 ft 324 kts 126°
2026-05-04 01:31 39.96233 -104.61149 13083 ft 321 kts 126°
2026-05-04 01:31 39.94934 -104.58783 12862 ft 320 kts 126°
2026-05-04 01:31 39.93645 -104.56435 12628 ft 319 kts 126°
2026-05-04 01:32 39.92352 -104.54096 12397 ft 317 kts 126°
2026-05-04 01:32 39.90965 -104.51870 12186 ft 316 kts 137°
2026-05-04 01:32 39.89147 -104.50371 12011 ft 305 kts 162°
2026-05-04 01:32 39.87102 -104.49928 11838 ft 294 kts 180°
2026-05-04 01:33 39.85084 -104.49920 11617 ft 287 kts 184°
2026-05-04 01:33 39.83110 -104.49977 11421 ft 281 kts 184°
2026-05-04 01:33 39.81203 -104.50033 11222 ft 275 kts 184°
2026-05-04 01:33 39.79309 -104.50078 11061 ft 269 kts 184°
2026-05-04 01:34 39.77467 -104.50241 10881 ft 257 kts 195°
2026-05-04 01:34 39.75917 -104.51210 10481 ft 251 kts 225°
2026-05-04 01:34 39.74999 -104.53099 10087 ft 244 kts 257°
2026-05-04 01:34 39.74810 -104.55266 9691 ft 241 kts 271°
2026-05-04 01:35 39.74831 -104.57432 9375 ft 238 kts 273°
2026-05-04 01:35 39.74872 -104.59505 9219 ft 228 kts 273°
2026-05-04 01:35 39.74908 -104.61513 9057 ft 218 kts 274°
2026-05-04 01:35 39.75274 -104.63366 8656 ft 210 kts 304°
2026-05-04 01:36 39.76422 -104.64400 8255 ft 203 kts 345°
2026-05-04 01:36 39.77817 -104.64500 7885 ft 199 kts 359°
2026-05-04 01:36 39.79169 -104.64404 7680 ft 189 kts
2026-05-04 01:36 39.80452 -104.64314 8016 ft 184 kts 359°
2026-05-04 01:37 39.81781 -104.64252 8471 ft 198 kts 359°
2026-05-04 01:37 39.83215 -104.64212 8891 ft 216 kts 358°
2026-05-04 01:37 39.84754 -104.64183 8998 ft 224 kts 358°
2026-05-04 01:37 39.86343 -104.64155 8971 ft 234 kts 358°
2026-05-04 01:38 39.87994 -104.64125 8995 ft 238 kts 358°
2026-05-04 01:38 39.89645 -104.64066 8993 ft 238 kts
2026-05-04 01:38 39.91156 -104.63221 9003 ft 243 kts 38°
2026-05-04 01:38 39.92417 -104.61745 8997 ft 243 kts 30°
2026-05-04 01:39 39.93996 -104.61011 9012 ft 252 kts
2026-05-04 01:39 39.95745 -104.61405 9002 ft 261 kts 334°
2026-05-04 01:39 39.97163 -104.62859 8990 ft 263 kts 307°
2026-05-04 01:39 39.97998 -104.64986 8990 ft 266 kts 290°
2026-05-04 01:40 39.98605 -104.67270 8980 ft 267 kts 288°
2026-05-04 01:40 39.99185 -104.69580 8973 ft 268 kts 287°
2026-05-04 01:40 39.99763 -104.71887 8967 ft 268 kts 287°
2026-05-04 01:40 40.00204 -104.74240 8966 ft 268 kts 272°
2026-05-04 01:41 39.99865 -104.76606 8965 ft 268 kts 246°
2026-05-04 01:41 39.98718 -104.78510 8954 ft 272 kts 220°
2026-05-04 01:41 39.97094 -104.79789 8966 ft 274 kts 209°
2026-05-04 01:41 39.95370 -104.80875 8971 ft 276 kts 208°
2026-05-04 01:42 39.93564 -104.81777 8973 ft 283 kts 193°
2026-05-04 01:42 39.91581 -104.81906 8982 ft 288 kts 179°
2026-05-04 01:42 39.89580 -104.81741 8986 ft 289 kts 178°
2026-05-04 01:42 39.87575 -104.81541 8981 ft 289 kts 178°
2026-05-04 01:43 39.85567 -104.81335 8985 ft 290 kts 177°
2026-05-04 01:43 39.83559 -104.81136 8979 ft 289 kts 177°
2026-05-04 01:43 39.81552 -104.80939 8981 ft 289 kts 178°
2026-05-04 01:43 39.79546 -104.80736 8977 ft 290 kts 178°
2026-05-04 01:44 39.77540 -104.80455 8984 ft 290 kts 168°
2026-05-04 01:44 39.75766 -104.79349 8987 ft 279 kts 141°
2026-05-04 01:44 39.74627 -104.77435 8997 ft 260 kts 112°
2026-05-04 01:44 39.74272 -104.75245 8984 ft 238 kts 91°
2026-05-04 01:45 39.74290 -104.73184 8779 ft 221 kts 83°
2026-05-04 01:45 39.74501 -104.71281 8456 ft 207 kts 75°
2026-05-04 01:45 39.76180 -104.68768 7486 ft 184 kts
2026-05-04 01:46 39.77408 -104.68706 7175 ft 171 kts 353°
2026-05-04 01:46 39.78567 -104.68806 6906 ft 162 kts 354°
2026-05-04 01:46 39.79660 -104.68827 6670 ft 151 kts 357°
2026-05-04 01:46 39.80680 -104.68758 6502 ft 143 kts 360°
2026-05-04 01:47 39.81660 -104.68754 6348 ft 141 kts 355°
2026-05-04 01:47 39.82643 -104.68768 6176 ft 142 kts 358°
2026-05-04 01:47 39.83634 -104.68771 5994 ft 143 kts 358°
2026-05-04 01:47 39.84622 -104.68716 5800 ft 141 kts 358°
2026-05-04 01:48 39.85604 -104.68727 5610 ft 142 kts 356°
2026-05-04 01:48 39.86584 -104.68716 5390 ft 139 kts 355°
2026-05-04 01:48 39.87473 -104.68708 5363 ft 105 kts 359°
2026-05-04 01:48 39.88002 -104.68702 5367 ft 47 kts 360°
2026-05-04 01:49 39.88284 -104.68700 5362 ft 31 kts
2026-05-04 01:49 39.88484 -104.68646 5359 ft 28 kts 19°
2026-05-04 01:49 39.88595 -104.68555 5360 ft 15 kts 66°
2026-05-04 01:49 39.88568 -104.68490 5360 ft 9 kts 155°
2026-05-04 01:50 39.88480 -104.68483 5360 ft 17 kts 181°
2026-05-04 01:50 39.88352 -104.68485 5360 ft 18 kts 180°
2026-05-04 01:50 39.88232 -104.68486 5363 ft 17 kts 180°
2026-05-04 01:50 39.88081 -104.68487 5361 ft 24 kts 180°
2026-05-04 01:51 39.87920 -104.68490 5364 ft 23 kts 181°
2026-05-04 01:51 39.87757 -104.68494 5366 ft 22 kts 181°
2026-05-04 01:51 39.87602 -104.68496 5365 ft 23 kts 180°
2026-05-04 01:51 39.87444 -104.68496 5363 ft 23 kts 180°
2026-05-04 01:52 39.87277 -104.68498 5361 ft 25 kts 180°
2026-05-04 01:52 39.87107 -104.68501 5362 ft 24 kts 181°
2026-05-04 01:52 39.86935 -104.68504 5362 ft 25 kts 181°
2026-05-04 01:52 39.86770 -104.68504 5366 ft 22 kts 179°
2026-05-04 01:53 39.86617 -104.68505 5367 ft 22 kts 180°
2026-05-04 01:53 39.86464 -104.68507 5368 ft 22 kts 181°
2026-05-04 01:53 39.86316 -104.68510 5369 ft 22 kts 181°
2026-05-04 01:53 39.86160 -104.68509 5366 ft 23 kts 180°
2026-05-04 01:54 39.86002 -104.68512 5367 ft 22 kts 181°
2026-05-04 01:54 39.85850 -104.68513 5367 ft 21 kts 179°
2026-05-04 01:54 39.85708 -104.68515 5372 ft 19 kts 181°
2026-05-04 01:54 39.85613 -104.68480 5374 ft 13 kts 128°
2026-05-04 01:55 39.85598 -104.68365 5378 ft 15 kts 92°
2026-05-04 01:55 39.85606 -104.68232 5387 ft 15 kts 61°
2026-05-04 01:55 39.85683 -104.68202 5390 ft 12 kts 358°
2026-05-04 01:55 39.85734 -104.68147 5383 ft 12 kts 79°
2026-05-04 01:56 39.85736 -104.67990 5384 ft 21 kts 91°
2026-05-04 01:56 39.85734 -104.67794 5383 ft 22 kts 90°
2026-05-04 01:56 39.85733 -104.67597 5390 ft 22 kts 90°
2026-05-04 01:56 39.85732 -104.67398 5390 ft 22 kts 90°
2026-05-04 01:57 39.85732 -104.67229 5390 ft 9 kts 83°
2026-05-04 01:57 39.85769 -104.67198 5388 ft 6 kts
2026-05-04 01:57 39.85806 -104.67196 5390 ft 0 kts
2026-05-04 01:57 39.85810 -104.67196 5390 ft 1 kts